Flag for Switzerland Weather past 2 weeks in Altdorf, Uri, Switzerland

Now
58 °F

Sunny.


Feels Like: 58 °F
Forecast: 58 / 75 °F
Wind: 1 mph from East

Location: Altdorf

Current Time: Jul 25, 2014 at 9:02:41 AM

Latest Report: Jul 25, 2014 at 8:00 AM


Visibility: 13 mi

Pressure: 29.96 "Hg

Humidity: 89%

Dew point: 55 °F

Location of AltdorfLocation

Historic Weather in Altdorf — Graph

°F

Altdorf temperature yesterday

Maximum temperature yesterday: 74 °F (at 7:00 PM)
Minimum temperature yesterday: 61 °F (at 11:00 PM)
Average temperature yesterday: 66 °F

Past Weeks' High & Low Weather Summary

 TemperatureHumidityPressure
High85 °F (Jul 20, 2:00 AM)96% (Jul 12, 3:00 AM)30.20 "Hg (Jul 12, 3:00 AM)
Low52 °F (Jul 10, 7:00 AM)31% (Jul 19, 8:00 PM)29.75 "Hg (Jul 20, 3:00 AM)
Average66 °F78%29.97 "Hg
* Reported Jul 10 7:00 AM — Jul 25 7:00 AM, Altdorf, Weather by CustomWeather, © 2014

Note: Actual official high and low records may vary slightly from our data, if they occured in-between our weather recording intervals... More about our weather records

Advertising

Altdorf weather history for previous 24 hours

 ConditionsComfort  
Time TempWeatherWind HumidityBarometerVisibility
7:00 AM
Jul 25
58 °FCool.1 mph88%29.96 "HgN/A
6:00 AM56 °FCool.1 mph94%29.96 "HgN/A
5:00 AM57 °FPassing clouds.2 mph92%29.95 "Hg12 mi
4:00 AM57 °FCool.1 mph92%29.95 "HgN/A
3:00 AM59 °FCool.2 mph89%29.94 "HgN/A
2:00 AM60 °FCool.1 mph87%29.94 "HgN/A
1:00 AM60 °FCool.1 mph90%29.95 "HgN/A
12:00 AM61 °FCool.1 mph88%29.94 "HgN/A
11:00 PM
Jul 24
61 °FPassing clouds.2 mph88%29.94 "Hg12 mi
10:00 PM64 °FMild.1 mph82%29.91 "HgN/A
9:00 PM68 °FMild.2 mph69%29.87 "HgN/A
8:00 PM70 °FPartly sunny.2 mph69%29.85 "Hg16 mi
7:00 PM74 °FMild.5 mph59%29.83 "HgN/A
6:00 PM73 °FMild.5 mph61%29.83 "HgN/A
5:00 PM74 °FScattered clouds.3 mph58%29.83 "Hg17 mi
4:00 PM72 °FMild.3 mph64%29.85 "HgN/A
3:00 PM71 °FMild.3 mph70%29.86 "HgN/A
2:00 PM69 °FPartly sunny.2 mph76%29.88 "Hg11 mi
1:00 PM66 °FMild.5 mph86%29.91 "HgN/A
12:00 PM65 °FMild.2 mph88%29.90 "HgN/A
11:00 AM64 °FRain. Overcast.1 mph91%29.90 "Hg5 mi
10:00 AM63 °FMild.5 mph88%29.88 "HgN/A
9:00 AM64 °FMild.1 mph95%29.87 "HgN/A
Weather by CustomWeather, © 2014

See weather overviewHow to use our weather pages